Regional Weather Roundup
Issued by NWS

Home | Current Version | Previous Version | Text Only | Print | Product List | Glossary Off
Versions: 1 2 3 4 5 6 7 8 9 10 11 12 13 14 15 16 17 18 19 20 21 22 23 24 25 26 27 28 29 30 31 32 33 34 35 36 37 38 39 40 41 42 43 44 45 46 47 48 49 50

000
ASUS43 KFSD 170710
RWRSD

WEATHER ROUNDUP FOR SOUTH DAKOTA
NATIONAL WEATHER SERVICE SIOUX FALLS SD
200 AM CDT THU APR 17 2014

NOTE: "FAIR" INDICATES FEW OR NO CLOUDS BELOW 12,000 FEET WITH NO
SIGNIFICANT WEATHER AND/OR OBSTRUCTIONS TO VISIBILITY.


SDZ001>005-009-010-012>017-170800-
NORTHWEST AND NORTH CENTRAL SOUTH DAKOTA

CITY           SKY/WX    TMP DP  RH WIND       PRES   REMARKS
BUFFALO          N/A     29  25  85 SE10      30.10S WCI  20
FAITH            N/A     28  22  78 SE7       30.21R WCI  21
MOBRIDGE       PTCLDY    27  17  66 E13       30.23R WCI  16
$$

SDZ012>016-024>037-041>051-057-063-072>074-170800-
SOUTHWEST AND SOUTH CENTRAL SOUTH DAKOTA

CITY           SKY/WX    TMP DP  RH WIND       PRES   REMARKS
RAPID CTY ARPT CLOUDY    31  25  78 S9        30.17S WCI  23
PIERRE         CLOUDY    27  20  75 N3        30.24S
CUSTER         CLOUDY    25  23  92 S5        30.08S FOG     WCI  19
ELLSWORTH AFB  CLOUDY    31  25  77 S12       30.15F WCI  22
PHILIP         CLOUDY    31  23  72 E8        30.23S WCI  23
PINE RIDGE     CLOUDY    30  26  85 S6        30.19R WCI  24
SPEARFISH      FAIR      27  25  93 W3        30.11S
WINNER         FAIR      26  21  81 N5        30.23F WCI  20
$$

SDZ004>011-016>023-039-040-170800-
NORTHEAST SOUTH DAKOTA

CITY           SKY/WX    TMP DP  RH WIND       PRES   REMARKS
ABERDEEN       CLEAR     20  17  88 N8        30.26R WCI  10
WATERTOWN      CLEAR     18  15  88 N12       30.18R WCI   5
SISSETON         N/A     21  17  84 N8        30.23R WCI  11
$$

SDZ017-020-022-023-036>040-048>070-170800-
SOUTHEAST SOUTH DAKOTA

CITY           SKY/WX    TMP DP  RH WIND       PRES   REMARKS
SIOUX FALLS    CLOUDY    28  23  81 N13       30.18R WCI  17
HURON          CLEAR     20  17  88 NW7       30.25R WCI  11
CHAMBERLAIN      N/A     26  21  81 N6        30.25S WCI  19
MITCHELL       CLEAR     26  21  81 NW8       30.24R WCI  18
YANKTON        CLOUDY    30  25  80 N13       30.22S WCI  20
$$

ABBREVIATIONS USED IN REMARKS
   TC - TEMPERATURE IN CELSIUS
  WCI - WIND CHILL INDEX
   HX - HEAT INDEX
  VSB - VISIBILITY




USA.gov is the U.S. government's official web portal to all federal, state and local government web resources and services.